Location: Beadle
(51.4667°N, 109.0000°W)
Time: 01:45:58
(UTC+00:00)

M-CUBED/EXP-1 PRIME - Visible Passes

Search period start: 26 June 2022 00:00
Search period end: 06 July 2022 00:00
Orbit: 423 x 634 km, 101.7° (Epoch: 25 June)

Date Brightness Start Highest point End Pass type
(mag) Time Alt. Az. Time Alt. Az. Time Alt. Az.
26 Jun ? 07:27:42 16° ESE 07:29:53 36° ENE 07:32:58 10° N visible
26 Jun ? 09:02:57 15° WSW 09:03:58 17° W 09:06:15 10° NW visible
27 Jun ? 07:16:30 12° ESE 07:18:58 27° ENE 07:21:50 10° N visible
27 Jun ? 08:51:45 20° SW 08:52:53 24° W 08:55:38 10° NW visible
28 Jun ? 07:05:34 10° ESE 07:08:04 21° NE 07:10:36 10° N visible
28 Jun ? 08:40:31 24° SSW 08:41:48 33° WSW 08:44:51 10° NW visible
29 Jun ? 06:55:04 10° E 06:57:09 16° NE 06:59:17 10° NNE visible
29 Jun ? 08:29:17 27° SSW 08:30:43 48° WSW 08:33:58 10° NNW visible
30 Jun ? 06:44:47 10° ENE 06:46:16 13° NE 06:47:46 10° NNE visible
30 Jun ? 08:18:02 27° S 08:19:39 72° WSW 08:23:01 10° NNW visible
01 Jul ? 08:06:46 24° SSE 08:08:36 79° ENE 08:12:00 10° NNW visible
02 Jul ? 07:55:30 20° SE 07:57:34 55° ENE 08:00:56 10° NNW visible
02 Jul ? 09:30:45 11° WSW 09:31:51 13° W 09:33:25 10° WNW visible
03 Jul ? 07:44:12 15° SE 07:46:33 39° ENE 07:49:47 10° N visible
03 Jul ? 09:19:27 15° SW 09:20:40 18° W 09:23:01 10° NW visible
04 Jul ? 07:32:54 12° ESE 07:35:33 29° ENE 07:38:35 10° N visible
04 Jul ? 09:08:09 19° SW 09:09:28 24° W 09:12:20 10° NW visible
05 Jul ? 07:21:53 10° ESE 07:24:33 22° NE 07:27:20 10° N visible
05 Jul ? 08:56:50 23° SSW 08:58:17 34° WSW 09:01:29 10° NW visible
